This is the latest recevied weather packets stored in our database for station/object KD8NVS-13. If no packets are shown the sender has not sent any weather packets the latest 10 day(s).
| Time | Temp. | Humidity | Pressure | Rain* | Wind** | Luminosity | Snow |
|---|---|---|---|---|---|---|---|
| 1777994781 | 21.11° C | 61% | 999.3 hPa | 0 mm | - | 510 W/m² | - |
| 1777994476 | 20.56° C | 63% | 999 hPa | 0 mm | - | 322 W/m² | - |
| 1777994172 | 20.56° C | 66% | 999 hPa | 0 mm | - | 520 W/m² | - |
| 1777993870 | 20.56° C | 65% | 998.7 hPa | 0 mm | - | 247 W/m² | - |
| 1777993566 | 20.56° C | 65% | 998.7 hPa | 0 mm | - | 247 W/m² | - |
| 1777993263 | 20.56° C | 65% | 999 hPa | 0 mm | - | 308 W/m² | - |
| 1777992958 | 19.44° C | 68% | 999 hPa | 0 mm | - | 292 W/m² | - |
| 1777992657 | 19.44° C | 68% | 999 hPa | 0 mm | - | 292 W/m² | - |
| 1777992354 | 19.44° C | 69% | 999 hPa | 0 mm | - | 219 W/m² | - |
| 1777992051 | 18.89° C | 69% | 999 hPa | 0 mm | - | 360 W/m² | - |
| 1777991749 | 18.33° C | 70% | 999 hPa | 0 mm | - | 317 W/m² | - |
| 1777991446 | 18.33° C | 69% | 998.7 hPa | 0 mm | - | 192 W/m² | - |
| 1777991143 | 18.33° C | 71% | 998.7 hPa | 0 mm | - | 177 W/m² | - |
| 1777990840 | 17.78° C | 72% | 998.7 hPa | 0 mm | - | 148 W/m² | - |
| 1777990537 | 17.78° C | 72% | 998.3 hPa | 0 mm | - | 132 W/m² | - |
| 1777989931 | 17.78° C | 73% | 998.7 hPa | 0 mm | - | 93 W/m² | - |
| 1777989628 | 18.33° C | 72% | 998.7 hPa | 0 mm | - | 105 W/m² | - |
| 1777989324 | 17.78° C | 73% | 998.7 hPa | 0 mm | - | 129 W/m² | - |
| 1777989021 | 17.78° C | 72% | 998.7 hPa | 0 mm | - | 126 W/m² | - |
| 1777988716 | 18.33° C | 72% | 998.7 hPa | 0 mm | - | 125 W/m² | - |
| 1777988414 | 18.33° C | 72% | 998.7 hPa | 0 mm | - | 146 W/m² | - |
| 1777988111 | 18.33° C | 73% | 998.7 hPa | 0 mm | - | 265 W/m² | - |
| 1777987807 | 18.33° C | 74% | 998.7 hPa | 0 mm | - | 204 W/m² | - |
| 1777987503 | 17.78° C | 74% | 998.7 hPa | 0 mm | - | 179 W/m² | - |
| 1777987201 | 17.78° C | 76% | 998.3 hPa | 0 mm | - | 185 W/m² | - |
* Rain latest hour (hover to see other rain measurements)
** Current wind speed in m/s (hover to see current wind gust speed)